Flag for U.S.A. Weather past 2 weeks in Midland, Texas, U.S.A.

Now
74 °F

Scattered clouds.


Feels Like: 77 °F
Forecast: 59 / 73 °F
Wind: 10 mph from Southeast

Location: Midland - Midland Airpark

Current Time: Oct 21, 2014 at 2:17:59 PM

Latest Report: Oct 21, 2014 at 1:55 PM


Visibility: 10 mi

Pressure: 30.09 "Hg

Humidity: 50%

Dew point: 54 °F

Location of MidlandLocation

Historic Weather in Midland — Graph

°F

Midland temperature yesterday

Maximum temperature yesterday: 79 °F (at 3:15 PM)
Minimum temperature yesterday: 58 °F (at 6:55 AM)
Average temperature yesterday: 68 °F

Past Weeks' High & Low Weather Summary

 TemperatureHumidityPressure
High92 °F (Oct 7, 3:35 PM)93% (Oct 20, 7:15 AM)30.29 "Hg (Oct 20, 7:15 AM)
Low46 °F (Oct 14, 7:55 AM)12% (Oct 7, 3:15 PM)29.66 "Hg (Oct 12, 6:15 PM)
Average69 °F49%30.04 "Hg
* Reported Oct 6 12:15 PM — Oct 21 12:55 PM, Midland, Weather by CustomWeather, © 2014

Note: Actual official high and low records may vary slightly from our data, if they occured in-between our weather recording intervals... More about our weather records

Advertising

Midland weather history for previous 24 hours

 ConditionsComfort  
Time TempWeatherWind HumidityBarometerVisibility
12:55 PM
Oct 21
74 °FScattered clouds.8 mph52%30.11 "Hg10 mi
12:35 PM74 °FScattered clouds.10 mph52%30.12 "Hg10 mi
12:15 PM74 °FScattered clouds.12 mph53%30.13 "Hg10 mi
11:55 AM73 °FScattered clouds.9 mph57%30.13 "Hg10 mi
11:35 AM72 °FScattered clouds.8 mph60%30.14 "Hg10 mi
11:15 AM71 °FSunny.9 mph62%30.14 "Hg10 mi
10:55 AM70 °FSunny.7 mph64%30.14 "Hg10 mi
10:35 AM69 °FSunny.8 mph66%30.14 "Hg10 mi
10:15 AM68 °FSunny.7 mph69%30.14 "Hg10 mi
9:55 AM66 °FSunny.5 mph72%30.14 "Hg10 mi
9:35 AM64 °FSunny.3 mph73%30.14 "Hg10 mi
9:15 AM63 °FSunny.3 mph74%30.14 "Hg10 mi
8:55 AM61 °FClear.3 mph79%30.13 "Hg10 mi
8:35 AM59 °FClear.No wind80%30.12 "Hg10 mi
8:15 AM59 °FPassing clouds.3 mph80%30.12 "Hg10 mi
7:55 AM59 °FPassing clouds.5 mph80%30.12 "Hg10 mi
7:35 AM58 °FPassing clouds.No wind80%30.12 "Hg10 mi
7:15 AM59 °FClear.No wind79%30.11 "Hg10 mi
6:55 AM61 °FPassing clouds.No wind75%30.10 "Hg10 mi
6:35 AM60 °FClear.No wind76%30.10 "Hg10 mi
6:15 AM61 °FClear.5 mph75%30.10 "Hg10 mi
5:55 AM61 °FClear.3 mph74%30.10 "Hg10 mi
5:35 AM61 °FClear.No wind74%30.09 "Hg10 mi
5:15 AM61 °FClear.No wind74%30.09 "Hg10 mi
4:55 AM61 °FClear.No wind74%30.09 "Hg10 mi
4:35 AM61 °FClear.No wind74%30.09 "Hg10 mi
4:15 AM62 °FClear.3 mph72%30.09 "Hg10 mi
3:55 AM60 °FClear.No wind77%30.09 "Hg10 mi
3:15 AM63 °FPassing clouds.No wind69%30.09 "Hg10 mi
2:55 AM63 °FPassing clouds.3 mph70%30.09 "Hg10 mi
2:15 AM63 °FClear.5 mph70%30.09 "Hg10 mi
1:55 AM63 °FClear.6 mph69%30.09 "Hg10 mi
1:35 AM64 °FClear.7 mph68%30.09 "Hg10 mi
1:15 AM64 °FClear.6 mph66%30.09 "Hg10 mi
12:55 AM65 °FClear.6 mph65%30.09 "Hg10 mi
12:35 AM66 °FClear.7 mph63%30.09 "Hg10 mi
12:15 AM66 °FClear.7 mph63%30.10 "Hg10 mi
11:55 PM
Oct 20
67 °FPassing clouds.5 mph62%30.10 "Hg10 mi
11:35 PM67 °FPassing clouds.6 mph61%30.10 "Hg10 mi
11:15 PM68 °FClear.6 mph59%30.10 "Hg10 mi
10:55 PM68 °FClear.7 mph57%30.10 "Hg10 mi
10:15 PM69 °FClear.5 mph55%30.10 "Hg10 mi
9:55 PM70 °FClear.7 mph53%30.09 "Hg10 mi
9:35 PM71 °FClear.7 mph50%30.08 "Hg10 mi
9:15 PM72 °FClear.6 mph48%30.08 "Hg10 mi
8:55 PM72 °FClear.6 mph48%30.07 "Hg10 mi
8:35 PM72 °FClear.7 mph48%30.07 "Hg10 mi
8:15 PM73 °FClear.6 mph47%30.06 "Hg10 mi
7:55 PM74 °FSunny.7 mph47%30.06 "Hg10 mi
7:15 PM75 °FSunny.7 mph45%30.05 "Hg10 mi
6:55 PM75 °FSunny.8 mph44%30.05 "Hg10 mi
6:35 PM76 °FSunny.9 mph44%30.04 "Hg10 mi
6:15 PM76 °FSunny.9 mph42%30.04 "Hg10 mi
5:55 PM76 °FSunny.8 mph42%30.04 "Hg10 mi
5:35 PM76 °FSunny.9 mph41%30.04 "Hg10 mi
5:15 PM77 °FSunny.8 mph43%30.05 "Hg10 mi
4:55 PM77 °FSunny.13 mph45%30.05 "Hg10 mi
4:15 PM77 °FSunny.10 mph46%30.06 "Hg10 mi
3:55 PM77 °FSunny.8 mph44%30.05 "Hg10 mi
3:15 PM79 °FSunny.10 mph36%30.06 "Hg10 mi
2:55 PM78 °FSunny.9 mph44%30.07 "Hg10 mi
2:35 PM78 °FScattered clouds.9 mph47%30.08 "Hg10 mi
2:15 PM76 °FScattered clouds.10 mph53%30.09 "Hg10 mi
Weather by CustomWeather, © 2014

See weather overviewHow to use our weather pages